Wind_Speed
16 17 17 17 16 16 15 14 12 11 10 10 9 8 7 6 5 5 4 5 5 5 5 5 5 5 5 6 6 7 7 7 8 9 9 10 10 10 11 11 12 14 15
18 18 18 18 18 18 17 17 15 14 14 13 13 12 11 10 8 8 7 7 7 7 7 7 6 6 6 7 7 8 9 9 10 11 12 12 13 14 14 15 15 15 17
20 20 20 20 20 20 19 18 17 17 16 16 16 15 14 13 13 12 11 10 9 9 10 9 9 9 8 8 9 9 10 10 11 12 14 15 16 17 17 18 18 18 18
22 23 23 23 23 22 22 21 19 18 18 19 18 18 17 17 16 15 14 13 13 12 12 12 12 11 11 10 10 10 11 11 12 14 15 16 17 19 20 20 21 21 20
25 25 26 26 25 25 24 23 22 21 21 21 21 20 20 19 19 19 18 17 16 16 15 15 14 14 13 12 12 12 12 13 14 15 16 17 18 19 21 22 23 23 23
28 28 29 29 29 28 27 26 26 24 23 23 23 22 21 22 22 23 22 21 19 19 18 18 17 16 15 14 14 13 13 14 15 16 17 18 19 20 22 23 25 25 25
30 30 32 31 32 31 31 30 29 28 26 25 24 24 24 24 25 25 25 24 22 22 21 20 19 19 18 16 16 15 15 15 16 17 18 19 20 21 22 24 25 26 27
31 30 31 31 31 32 32 32 31 30 29 28 27 26 25 25 25 26 26 26 25 24 23 22 21 21 20 19 18 17 17 17 18 18 19 20 21 21 22 23 24 26 27
34 33 32 31 31 31 32 33 32 31 31 30 29 28 27 26 25 25 26 27 27 26 25 24 23 23 22 21 20 19 19 19 19 19 20 21 22 22 23 23 24 25 27
36 35 34 32 32 31 30 30 32 31 32 32 31 30 29 28 27 25 26 27 27 27 26 26 25 25 24 23 22 21 21 21 21 21 21 22 22 23 23 23 24 25 26
39 37 35 33 29 27 27 28 31 32 31 31 31 30 30 29 28 28 27 27 27 27 27 27 28 27 27 26 24 23 22 22 22 22 22 23 23 23 23 24 24 25 26
38 37 35 33 30 28 27 26 26 28 30 30 30 30 31 30 30 30 29 28 28 29 29 29 30 30 29 27 26 25 24 24 23 23 23 24 24 23 23 24 25 25 26
36 34 33 32 30 28 27 27 28 27 28 28 29 30 31 31 31 32 32 32 31 31 30 31 32 31 30 29 28 27 26 25 24 24 24 24 23 23 24 24 25 26 27
34 33 33 32 32 32 31 30 30 28 29 29 29 30 31 32 32 33 34 34 33 33 33 33 33 33 32 30 30 28 27 25 24 24 24 24 23 23 23 23 24 25 26
32 33 33 34 35 35 35 33 32 31 31 31 31 32 33 32 32 33 34 34 34 33 33 33 34 33 32 31 30 28 27 26 25 24 24 23 23 22 22 22 23 24 25
31 32 34 34 35 36 36 35 34 34 34 34 34 34 35 34 34 34 34 34 34 34 34 34 33 33 32 30 29 27 26 25 25 24 23 23 22 22 22 22 22 23 23
27 29 31 31 33 33 34 34 34 34 33 33 34 34 35 34 33 33 33 33 34 34 34 33 31 31 30 29 27 25 24 24 24 23 23 22 23 23 22 22 22 22 23
19 21 22 24 26 27 28 29 30 31 31 31 31 32 33 32 31 31 31 31 31 31 30 29 29 27 26 25 23 23 23 23 23 22 22 22 22 22 22 22 23 23 23
11 12 14 16 17 19 20 22 24 25 26 26 27 28 28 28 27 27 27 27 27 27 26 24 23 23 22 20 20 21 21 21 21 21 21 21 21 21 21 22 23 24 24
6 7 8 10 11 12 14 16 18 18 19 21 22 22 22 22 22 21 21 20 20 19 19 18 18 17 17 17 18 19 20 21 20 20 20 20 21 21 21 21 21 22 23
7 7 8 8 9 9 10 11 12 14 15 16 16 16 16 16 15 16 15 15 15 14 14 14 14 15 16 17 18 19 19 19 19 19 19 20 20 20 20 20 20 21 22
8 8 8 9 9 11 12 12 12 12 12 13 13 14 14 13 13 14 13 13 12 12 13 13 14 14 15 16 17 18 18 18 18 19 19 19 19 19 19 20 20 20 21
10 10 10 10 10 11 13 13 14 15 14 14 14 14 14 14 14 14 13 13 13 13 13 13 14 14 15 16 16 16 17 17 17 18 18 18 18 18 18 18 19 20 21
12 12 13 12 12 12 13 13 14 14 15 16 16 16 16 15 15 15 14 13 13 14 14 13 14 14 14 15 15 15 16 16 16 17 17 17 17 17 17 18 18 19 19
16 15 14 13 12 12 12 13 13 14 15 15 16 16 16 16 16 16 16 15 14 14 14 13 13 13 13 14 14 14 14 14 14 14 14 14 15 15 16 17 17 18 19
19 18 17 15 14 13 12 11 11 12 13 13 14 15 15 16 16 16 16 15 14 13 13 12 12 13 12 12 12 12 12 11 11 11 11 11 12 13 14 15 15 16 17
Wind_Direction
268 271 274 276 277 278 278 276 276 278 279 282 286 290 294 298 297 295 290 287 288 291 293 291 291 291 290 292 295 297 300 301 302 301 299 296 292 288 285 281 274 267 261
266 269 272 273 275 275 274 274 273 274 275 276 276 275 277 279 283 287 288 289 290 291 291 290 288 288 289 290 291 293 296 297 296 295 293 290 287 284 282 280 277 272 267
263 266 269 270 272 273 273 273 272 272 273 274 273 270 269 268 269 275 279 282 284 284 284 285 285 284 284 288 291 294 295 295 293 292 291 289 286 282 280 278 276 273 270
261 265 267 268 269 270 271 271 271 270 270 271 271 270 268 267 266 268 270 273 275 277 277 279 281 282 284 287 289 293 294 295 293 292 290 288 286 283 280 277 274 271 269
260 262 265 267 267 266 266 268 269 269 268 268 269 269 269 269 267 266 265 266 268 270 272 274 277 280 283 286 288 292 294 294 293 292 291 289 287 284 281 278 274 271 268
261 263 265 266 265 264 263 264 265 267 268 268 266 266 268 268 267 264 263 262 262 264 267 270 273 276 280 283 286 289 290 291 292 292 292 290 288 286 283 279 276 272 268
261 264 265 266 264 261 261 261 261 263 265 266 266 265 265 266 266 264 262 260 259 261 262 265 269 272 275 278 283 286 286 287 290 292 292 291 290 287 284 280 276 273 269
263 265 268 268 266 262 259 257 257 259 262 264 264 263 263 263 264 262 260 260 259 259 260 262 265 268 271 274 278 281 282 284 287 289 290 290 288 287 284 281 278 274 271
263 265 267 269 268 267 260 256 254 255 258 260 261 262 263 262 262 260 259 259 260 260 260 260 262 265 268 271 274 276 279 281 283 287 288 288 287 285 284 282 280 276 273
262 264 267 270 271 268 263 257 252 251 252 254 257 258 259 260 259 258 259 260 260 260 259 259 261 264 266 268 271 274 276 279 281 285 287 287 287 284 283 282 280 277 274
260 263 265 268 272 274 269 262 256 252 250 251 251 252 253 256 258 259 259 259 259 258 258 259 261 263 265 267 269 272 274 277 280 282 284 284 284 283 282 281 280 277 274
261 262 263 266 271 273 274 269 264 260 254 250 249 248 249 251 254 257 258 257 257 257 257 258 260 262 263 264 266 269 272 275 277 279 280 281 282 282 281 280 280 277 274
259 260 261 264 267 269 273 271 269 266 262 256 252 248 249 249 251 253 254 256 256 256 256 258 259 261 261 263 265 267 270 272 274 276 277 279 281 281 281 281 279 278 275
258 260 262 264 267 270 270 269 267 263 261 260 256 253 252 250 252 252 252 254 254 256 257 258 259 259 260 260 262 265 267 269 272 273 275 277 278 279 281 282 280 279 276
259 261 263 265 267 268 267 266 266 263 259 258 257 255 255 253 253 252 253 254 256 258 258 259 258 257 258 258 259 260 262 266 268 271 272 274 275 277 280 282 281 279 277
262 263 264 265 266 266 265 263 262 260 257 255 255 255 255 255 253 255 255 256 258 259 260 261 259 258 256 255 256 257 259 263 265 268 270 271 273 276 278 279 279 278 277
264 264 264 265 264 263 262 261 259 257 255 254 253 254 255 255 255 256 257 259 259 259 259 260 258 256 254 254 254 254 258 260 263 265 267 269 272 274 277 277 277 277 277
265 265 265 265 263 262 260 258 257 255 253 252 253 254 255 255 254 256 257 256 258 259 259 259 256 252 250 249 251 254 257 259 262 264 267 269 273 275 276 278 278 277 278
269 268 265 264 263 261 258 256 254 253 251 250 252 253 252 251 251 254 254 255 255 255 255 254 249 246 244 246 249 252 255 258 261 264 268 270 272 276 276 280 280 277 276
293 281 274 267 264 261 257 255 251 250 249 248 249 249 248 246 247 248 250 251 251 251 249 247 243 241 242 245 249 252 256 258 261 265 268 270 273 277 279 281 283 279 275
336 322 308 297 286 278 270 261 254 250 249 245 242 241 241 241 243 243 245 246 245 244 243 241 240 240 242 246 250 253 257 260 263 266 270 273 275 278 281 282 283 282 277
343 332 320 307 298 291 285 278 271 261 255 249 245 243 241 240 241 241 238 239 239 239 238 237 237 240 244 248 251 255 258 262 265 268 271 274 276 279 282 284 284 284 281
354 344 333 317 303 293 287 282 273 266 263 259 252 246 243 242 242 243 240 237 235 233 234 235 237 240 245 249 253 256 260 263 266 269 272 276 279 281 282 284 286 286 285
0 350 341 329 316 307 298 288 280 270 260 255 251 248 244 242 241 241 239 236 234 233 233 234 237 240 245 250 253 256 259 263 266 270 273 277 281 283 284 286 289 291 291
13 4 355 345 333 320 309 296 284 274 264 256 250 245 240 237 235 235 234 234 232 231 230 232 235 239 243 247 250 254 258 262 267 272 277 281 283 287 289 291 294 297 299
19 13 6 360 351 339 325 310 291 275 262 251 244 240 237 233 230 229 229 228 227 228 227 230 233 237 242 246 248 251 256 261 268 274 280 284 289 292 296 300 303 304 307
Height
5900 5900 5901 5901 5902 5902 5903 5904 5904 5905 5905 5906 5906 5907 5908 5908 5908 5908 5909 5909 5910 5910 5911 5911 5911 5912 5912 5912 5913 5913 5913 5913 5913 5913 5914 5914 5914 5914 5914 5915 5915 5915 5915
5896 5897 5897 5897 5898 5898 5899 5900 5901 5901 5902 5902 5903 5904 5905 5905 5906 5906 5907 5907 5907 5908 5908 5909 5909 5909 5910 5910 5910 5910 5910 5910 5910 5911 5911 5911 5911 5911 5912 5912 5912 5912 5912
5891 5892 5893 5893 5894 5894 5894 5895 5896 5897 5898 5899 5899 5900 5901 5902 5903 5903 5904 5904 5905 5905 5906 5906 5906 5907 5907 5907 5907 5907 5907 5907 5907 5907 5907 5907 5907 5908 5908 5908 5908 5908 5909
5886 5887 5887 5888 5889 5889 5889 5890 5891 5892 5893 5894 5895 5896 5896 5897 5898 5899 5900 5901 5901 5902 5902 5903 5903 5904 5904 5904 5904 5904 5904 5904 5904 5903 5903 5903 5903 5903 5904 5904 5904 5904 5904
5880 5880 5881 5882 5883 5883 5884 5885 5886 5887 5888 5889 5890 5890 5891 5892 5893 5894 5895 5896 5897 5898 5898 5899 5899 5900 5900 5900 5900 5900 5900 5900 5899 5899 5899 5899 5899 5899 5899 5899 5899 5899 5899
5873 5873 5874 5875 5876 5877 5878 5879 5880 5881 5882 5883 5884 5885 5885 5886 5887 5889 5890 5891 5892 5893 5894 5894 5895 5895 5896 5896 5896 5896 5895 5895 5895 5895 5894 5894 5894 5894 5893 5894 5894 5894 5894
5866 5867 5867 5868 5868 5869 5870 5872 5873 5874 5876 5877 5878 5879 5880 5881 5882 5882 5884 5885 5886 5887 5888 5889 5890 5890 5891 5891 5891 5891 5891 5891 5890 5890 5889 5889 5888 5888 5888 5888 5888 5888 5889
5859 5859 5860 5860 5861 5861 5863 5864 5866 5867 5869 5870 5872 5873 5874 5876 5875 5876 5877 5878 5880 5881 5882 5883 5884 5885 5885 5886 5886 5886 5886 5885 5885 5884 5884 5884 5883 5883 5882 5882 5882 5882 5883
5851 5852 5853 5853 5854 5854 5855 5856 5858 5860 5861 5863 5865 5866 5867 5868 5869 5870 5871 5872 5873 5874 5875 5876 5877 5878 5879 5880 5880 5880 5880 5880 5879 5879 5878 5878 5878 5877 5877 5876 5876 5876 5876
5844 5845 5846 5846 5847 5847 5848 5849 5850 5852 5854 5855 5857 5859 5860 5861 5862 5864 5864 5865 5866 5867 5868 5870 5871 5872 5873 5874 5874 5874 5874 5874 5874 5873 5873 5872 5872 5871 5871 5871 5870 5870 5870
5836 5838 5839 5840 5840 5841 5842 5843 5843 5845 5846 5848 5849 5850 5852 5853 5854 5856 5857 5859 5860 5861 5862 5863 5864 5865 5866 5867 5868 5868 5868 5868 5868 5867 5867 5866 5866 5865 5865 5865 5864 5864 5864
5828 5830 5832 5833 5834 5835 5835 5835 5836 5837 5838 5839 5841 5842 5844 5845 5847 5848 5850 5851 5853 5854 5855 5856 5857 5858 5859 5860 5861 5861 5862 5862 5862 5861 5861 5860 5860 5859 5859 5858 5858 5858 5858
5819 5821 5823 5825 5826 5827 5828 5828 5829 5830 5830 5831 5832 5834 5835 5837 5839 5840 5842 5843 5845 5847 5848 5849 5850 5850 5851 5852 5853 5854 5855 5855 5855 5855 5855 5854 5853 5853 5852 5852 5852 5851 5851
5811 5813 5815 5816 5818 5819 5820 5821 5821 5821 5822 5823 5824 5825 5827 5829 5830 5832 5834 5835 5837 5839 5840 5841 5842 5843 5844 5845 5846 5847 5847 5848 5849 5849 5848 5848 5847 5847 5846 5846 5845 5845 5845
5802 5804 5806 5807 5808 5809 5810 5811 5812 5812 5814 5815 5816 5817 5819 5820 5822 5824 5825 5827 5829 5830 5832 5833 5834 5835 5836 5837 5838 5839 5840 5841 5842 5842 5842 5842 5842 5841 5841 5840 5839 5839 5839
5793 5795 5796 5797 5798 5799 5800 5801 5802 5803 5805 5806 5807 5809 5810 5812 5813 5815 5817 5818 5820 5822 5823 5824 5826 5827 5828 5829 5831 5832 5833 5835 5836 5836 5836 5836 5836 5835 5835 5834 5833 5833 5833
5785 5786 5786 5787 5788 5789 5790 5791 5792 5794 5795 5797 5798 5800 5802 5804 5805 5806 5808 5810 5811 5813 5814 5816 5817 5819 5820 5822 5824 5825 5827 5828 5829 5830 5830 5830 5830 5829 5829 5828 5827 5827 5827
5777 5778 5778 5779 5779 5780 5781 5781 5783 5784 5786 5788 5789 5791 5793 5795 5796 5798 5800 5801 5803 5804 5806 5808 5809 5811 5813 5815 5817 5820 5821 5822 5823 5824 5824 5824 5824 5823 5823 5822 5822 5821 5821
5772 5772 5772 5773 5773 5773 5773 5774 5775 5777 5778 5780 5782 5784 5785 5787 5789 5790 5792 5794 5795 5797 5799 5801 5803 5805 5807 5810 5812 5814 5816 5817 5818 5818 5819 5818 5818 5818 5817 5817 5816 5815 5814
5769 5769 5769 5769 5768 5768 5768 5769 5770 5771 5772 5774 5775 5777 5779 5780 5782 5784 5786 5787 5789 5791 5793 5795 5798 5800 5802 5805 5807 5809 5811 5812 5813 5813 5813 5813 5813 5812 5811 5811 5810 5809 5808
5767 5767 5766 5765 5765 5764 5764 5764 5765 5766 5767 5768 5769 5771 5773 5775 5777 5779 5781 5782 5785 5787 5789 5791 5794 5796 5798 5800 5803 5804 5805 5806 5807 5807 5807 5807 5807 5807 5806 5805 5804 5803 5802
5766 5765 5764 5763 5762 5761 5761 5760 5760 5761 5761 5763 5764 5766 5768 5770 5772 5774 5776 5778 5781 5783 5785 5788 5790 5792 5794 5796 5798 5799 5800 5801 5802 5802 5802 5802 5802 5801 5800 5799 5798 5797 5796
5765 5763 5761 5760 5758 5757 5756 5756 5756 5756 5757 5758 5759 5761 5763 5765 5767 5770 5772 5774 5777 5780 5782 5784 5786 5788 5790 5792 5793 5794 5795 5796 5796 5797 5797 5797 5797 5796 5795 5794 5793 5792 5791
5764 5762 5759 5756 5754 5753 5751 5750 5750 5750 5750 5752 5753 5755 5757 5760 5762 5765 5768 5770 5773 5775 5778 5780 5782 5784 5786 5787 5789 5790 5791 5791 5792 5792 5793 5792 5792 5791 5791 5790 5789 5788 5786
5763 5760 5757 5754 5751 5749 5747 5745 5744 5743 5744 5745 5747 5749 5751 5754 5757 5760 5763 5765 5768 5771 5774 5776 5778 5780 5782 5783 5784 5786 5787 5787 5788 5788 5788 5788 5788 5787 5787 5786 5784 5783 5781
5764 5760 5756 5752 5749 5745 5743 5740 5738 5738 5738 5739 5741 5743 5746 5749 5752 5755 5758 5761 5764 5767 5770 5772 5775 5776 5778 5780 5781 5782 5783 5784 5784 5784 5784 5784 5784 5784 5783 5782 5780 5778 5776